Погода в Тазине

Россия / Республика Мордовия     54°18′35″N   46°04′41″E
темп.,
°C
ветер,
м/с
пор.,
м/с
влажн.,
%
обл.,
%
осадки,
мм/ч
давл.,
гПа
погр.,
м
12 мая, ср
ср1200:00+12ссз249290 0.1 1026109
03:00+11ссз119299 0.1 102611
06:00+13вюв1289100 0.0 102676
09:00+19в6106474 0.0 1025803
12:00+16в41175100 0.0 1024405
15:00+17юв61361100 0.0 1024839
18:00+16вюв4117894 0.0 1024486
21:00+13вюв378127 0.0 1024128
13 мая, чт
чт1300:00+13в228540 0.0 102434
03:00+11в22900 0.0 102429
06:00+14в3128087 0.0 1023322
09:00+15вюв51370100 0.0 1022464
12:00+15в61377100 0.2 1021470
15:00+22юв7146494 0.3 10191852
18:00+19юв6116823 0.2 1019374
21:00+14юв228460 0.4 101925
14 мая, пт
пт1400:00+14ююв128725 0.0 102011
03:00+13ю1190100 0.0 102011
06:00+15юв1287100 0.0 102165
09:00+20юв3373100 0.0 1021384
12:00+24ююв3659100 0.0 10201108
15:00+24ю585423 0.0 1019904
18:00+22ююв38675 0.0 1018207
21:00+17ююв22815 0.0 101920
15 мая, сб
сб1500:00+15юв238127 0.0 101828
03:00+14юв237462 0.0 101826
06:00+16ююв277444 0.0 1018163
09:00+22ю5135370 0.0 1018609
12:00+26ю611456 0.0 10181125
15:00+25ю611465 0.0 10171023
18:00+22ю512570 0.0 1017334
21:00+17ююв337098 0.0 101733
16 мая, вс
вс1600:00+16юв3471100 0.0 101756
03:00+15ююв3566100 0.0 101677
06:00+16ююв2570100 0.0 1017127
09:00+22ю510544 0.0 1017548
12:00+26ю58445 0.0 10161047
15:00+27ююз58495 0.0 10161755
18:00+23ююз38636 0.0 1016175
21:00+18ююз226575 0.0 101712